Find Raduga

NORAD ID: 14725 Int'l Des: 1984-016 Owner: GUKOS Country: SU operational
HEOCIRCULARGSO

Live-Position

3D-Globus wird geladen...

Über Raduga

Beschreibung wird geladen...

Nächste Überflüge

Passes for default location (London). Set your location on the main map for personalized predictions.

Höhenverlauf

Loading altitude history...

Zweizeiliger Elementsatz

1 14725U 84016A 26104.70965866 -.00000110 00000-0 00000+0 0 9990
2 14725 8.6934 311.2295 0001302 128.8118 93.1083 1.00299289117462
Epoch: 14. Apr. 2026 • Age: 9 hours

Aktueller Status

Höhe 35781.8 km
Geschwindigkeit 3.07 km/s
Subsatellitenpunkt -0.01°S, 74.83°E
Startdatum 15. Feb. 1984
Alter 42.1 years
Typ other

Technische Details

Klassifizierung Payload
Masse 1965.00 kg
Trockenmasse 1800.00 kg
Gesamtmasse 1965.00 kg
Länge 5.50 m
Durchmesser 2.50 m
Spannweite 9.50 m
Form Step Cyl + 2 Pan
Hersteller NPOPM
Bus-Typ Raduga
Phasenstatus In Orbit
Besitzer/Staat GUKOS/SU

Most Searched